Regional Weather Roundup
Issued by NWS

Home | Current Version | Previous Version | Graphics & Text | Print | Product List | Glossary On
Versions: 1 2 3 4 5 6 7 8 9 10 11 12 13 14 15 16 17 18 19 20 21 22 23 24 25 26 27 28 29 30 31 32 33 34 35 36 37 38 39 40 41 42 43 44 45 46 47 48 49 50
000
ASUS43 KLMK 261602
RWRKY
KENTUCKY REGIONAL WEATHER ROUNDUP
NATIONAL WEATHER SERVICE LOUISVILLE KY
1200 PM EDT WED JUL 26 2017

NOTE "FAIR" INDICATES FEW OR NO CLOUDS BELOW 12,000 FEET
WITH NO SIGNIFICANT WEATHER AND/OR OBSTRUCTIONS TO VISIBILITY.

KYZ001>023-026-027-061>063-070>075-261700-
WESTERN AND SOUTH CENTRAL KENTUCKY

CITY           SKY/WX    TMP DP  RH WIND       PRES   REMARKS
PADUCAH        SUNNY     91  77  63 VRB6      30.07R HX 104
HENDERSON      SUNNY     87  77  72 CALM      30.08F HX  99
OWENSBORO      PTSUNNY   87  76  69 CALM      30.09S HX  97
HOPKINSVILLE   SUNNY     89  75  62 SW6       30.10S HX  99
BOWLING GREEN  SUNNY     89  74  60 CALM      30.11S HX  98
GLASGOW        NOT AVBL
$$

KYZ024-025-028>034-038-045-046-053-261700-
NORTH CENTRAL KENTUCKY

CITY           SKY/WX    TMP DP  RH WIND       PRES   REMARKS
LOUISVILLE/SDF MOSUNNY   83  68  60 SE7       30.12F
LOUISVILLE/LOU MOSUNNY   84  69  60 CALM      30.13S
FORT KNOX      SUNNY     82  69  66 E6        30.11F
$$

KYZ035>037-039>044-047>052-055>060-089>105-261700-
NORTHEAST KENTUCKY

CITY           SKY/WX    TMP DP  RH WIND       PRES   REMARKS
LEXINGTON      SUNNY     82  65  56 CALM      30.16F
COVINGTON      MOSUNNY   80  66  62 CALM      30.15S
FRANKFORT      SUNNY     81  66  60 SE5       30.14F
$$

KYZ054-064>069-076>088-106>120-261700-
SOUTHEAST KENTUCKY

CITY           SKY/WX    TMP DP  RH WIND       PRES   REMARKS
JACKSON        SUNNY     80  67  64 CALM      30.18S
LONDON         MOSUNNY   83  62  49 SW3       30.18S
SOMERSET       PTSUNNY   79  64  61 CALM      30.17F
MIDDLESBORO    PTSUNNY   82  71  69 N3        30.18S
MONTICELLO     CLOUDY    82  73  74 VRB3      30.18S
$$




USA.gov is the U.S. government's official web portal to all federal, state and local government web resources and services.